Location: Zagreb
(45.8000°N, 16.0000°E)
Time: 11:25:24
(UTC+01:00)

Vanguard 1 Rocket - Pass Details

Date: 03 October 2020
Orbit: 656 x 4221 km, 34.3° (Epoch: 28 October)

Event Time Altitude Azimuth Distance (km) Brightness Sun altitude
Rises 14:48:49 0° 175° (S) 3,966 11.3 32.9°
Reaches altitude 10° 14:54:08 10° 142° (SE) 3,676 10.7 32.3°
Maximum altitude 14:56:43 11° 125° (SE) 3,906 10.7 32.0°
Drops below altitude 10° 14:59:41 10° 110° (ESE) 4,393 10.8 31.7°
Sets 15:08:35 0° 83° (E) 6,467 11.3 30.6°
